NPV7592 EGNX-LIPE

Flight info

Callsign NPV7592
Flight time 1h 54m
Altitude 35000
Route SAPCO Y53 DTY DCT SILVA UM605 BENSU Q70 BIG UL9 KONAN UL607 KOK M150 KOMOB DCT KRH DCT UTABA M738 BATUB DCT TIRUL M738 NATAG DCT LORLO DCT UNTAD DCT ADOSA/N0400F190 M738 BENUS
Aircraft A320/M-SDE3FGHIRWY/LB1

Departure

Time 2026-05-05 13:44
Airport East Midlands Airport (EGNX)

Arrival

Time 2026-05-05 15:39
Airport Bologna Guglielmo Marconi Airport (LIPE)
Time Latitude Longitude Altitude Speed Heading
2026-05-05 13:15 52.82726 -1.32934 301 ft 0 kts 178°
2026-05-05 13:35 52.82733 -1.32934 303 ft 4 kts 177°
2026-05-05 13:35 52.82760 -1.32939 303 ft 4 kts 165°
2026-05-05 13:35 52.82784 -1.32955 301 ft 4 kts 136°
2026-05-05 13:35 52.82793 -1.32982 301 ft 1 kts 88°
2026-05-05 13:36 52.82793 -1.32988 300 ft 0 kts 88°
2026-05-05 13:38 52.82793 -1.32984 300 ft 3 kts 88°
2026-05-05 13:39 52.82795 -1.32921 300 ft 5 kts 83°
2026-05-05 13:39 52.82808 -1.32876 303 ft 3 kts 49°
2026-05-05 13:39 52.82851 -1.32856 300 ft 10 kts 358°
2026-05-05 13:39 52.82918 -1.32837 305 ft 10 kts 44°
2026-05-05 13:40 52.82932 -1.32741 303 ft 8 kts 87°
2026-05-05 13:40 52.82934 -1.32644 301 ft 11 kts 88°
2026-05-05 13:40 52.82938 -1.32460 301 ft 20 kts 88°
2026-05-05 13:40 52.82941 -1.32223 301 ft 21 kts 88°
2026-05-05 13:41 52.82947 -1.31971 301 ft 22 kts 89°
2026-05-05 13:41 52.82951 -1.31711 301 ft 23 kts 88°
2026-05-05 13:41 52.82956 -1.31440 301 ft 24 kts 88°
2026-05-05 13:41 52.82961 -1.31160 301 ft 25 kts 88°
2026-05-05 13:42 52.82966 -1.30900 301 ft 18 kts 89°
2026-05-05 13:42 52.82991 -1.30727 303 ft 13 kts 53°
2026-05-05 13:42 52.83017 -1.30694 301 ft 0 kts 21°
2026-05-05 13:43 52.83035 -1.30685 303 ft 11 kts 15°
2026-05-05 13:43 52.83129 -1.30720 302 ft 19 kts 303°
2026-05-05 13:43 52.83131 -1.31175 304 ft 71 kts 268°
2026-05-05 13:44 52.83110 -1.32349 304 ft 131 kts 269°
2026-05-05 13:44 52.83075 -1.34081 523 ft 157 kts 271°
2026-05-05 13:44 52.83044 -1.35880 1268 ft 157 kts 272°
2026-05-05 13:44 52.83010 -1.37695 1918 ft 159 kts 271°
2026-05-05 13:45 52.82626 -1.39373 2529 ft 164 kts 220°
2026-05-05 13:45 52.81604 -1.40136 3093 ft 165 kts 198°
2026-05-05 13:45 52.80620 -1.41114 3522 ft 170 kts 225°
2026-05-05 13:45 52.79759 -1.42598 3820 ft 187 kts 229°
2026-05-05 13:46 52.78839 -1.44261 4029 ft 210 kts 229°
2026-05-05 13:46 52.77794 -1.46127 4262 ft 234 kts 228°
2026-05-05 13:46 52.76573 -1.48096 4586 ft 258 kts 214°
2026-05-05 13:46 52.74830 -1.48945 5136 ft 270 kts 176°
2026-05-05 13:47 52.73005 -1.48169 5818 ft 274 kts 159°
2026-05-05 13:47 52.71234 -1.47015 6444 ft 274 kts 157°
2026-05-05 13:47 52.69475 -1.45790 7250 ft 276 kts 156°
2026-05-05 13:47 52.67696 -1.44539 7983 ft 281 kts 157°
2026-05-05 13:48 52.65881 -1.43277 8709 ft 286 kts 158°
2026-05-05 13:48 52.64018 -1.42016 8988 ft 291 kts 159°
2026-05-05 13:48 52.62142 -1.40796 9024 ft 290 kts 160°
2026-05-05 13:48 52.60260 -1.39602 9029 ft 289 kts 160°
2026-05-05 13:49 52.58377 -1.38422 9032 ft 289 kts 160°
2026-05-05 13:49 52.56495 -1.37245 9024 ft 289 kts 160°
2026-05-05 13:49 52.54614 -1.36065 9032 ft 289 kts 160°
2026-05-05 13:49 52.52756 -1.34874 9203 ft 294 kts 159°
2026-05-05 13:50 52.50866 -1.33600 10024 ft 295 kts 159°
2026-05-05 13:50 52.48927 -1.32268 10398 ft 313 kts 158°
2026-05-05 13:50 52.46840 -1.30836 10559 ft 337 kts 158°
2026-05-05 13:50 52.44602 -1.29310 10691 ft 359 kts 158°
2026-05-05 13:51 52.42241 -1.27705 11019 ft 373 kts 159°
2026-05-05 13:51 52.39831 -1.26064 11591 ft 377 kts 158°
2026-05-05 13:51 52.37396 -1.24408 12218 ft 381 kts 159°
2026-05-05 13:51 52.34934 -1.22739 12859 ft 384 kts 159°
2026-05-05 13:52 52.32455 -1.21070 13532 ft 387 kts 159°
2026-05-05 13:52 52.29955 -1.19393 14103 ft 390 kts 159°
2026-05-05 13:52 52.27431 -1.17701 14661 ft 393 kts 159°
2026-05-05 13:52 52.24887 -1.15998 15208 ft 396 kts 159°
2026-05-05 13:53 52.22328 -1.14288 15747 ft 399 kts 159°
2026-05-05 13:53 52.19758 -1.12566 16274 ft 401 kts 159°
2026-05-05 13:53 52.17109 -1.11109 16782 ft 403 kts 167°
2026-05-05 13:53 52.14358 -1.10176 17291 ft 405 kts 169°
2026-05-05 13:54 52.11589 -1.09272 17818 ft 407 kts 170°
2026-05-05 13:54 52.08798 -1.08364 18320 ft 410 kts 169°
2026-05-05 13:54 52.05994 -1.07448 18753 ft 412 kts 169°
2026-05-05 13:54 52.03176 -1.06520 19192 ft 414 kts 169°
2026-05-05 13:55 52.00351 -1.05594 19611 ft 416 kts 169°
2026-05-05 13:55 51.97506 -1.04667 20034 ft 418 kts 170°
2026-05-05 13:55 51.94647 -1.03741 20457 ft 420 kts 170°
2026-05-05 13:55 51.91776 -1.02812 20873 ft 422 kts 170°
2026-05-05 13:56 51.88892 -1.01881 21283 ft 424 kts 170°
2026-05-05 13:56 51.85994 -1.00947 21692 ft 426 kts 169°
2026-05-05 13:56 51.83166 -0.99489 22058 ft 431 kts 155°
2026-05-05 13:56 51.80660 -0.96791 22420 ft 437 kts 139°
2026-05-05 13:57 51.78670 -0.93052 22760 ft 441 kts 129°
2026-05-05 13:57 51.76822 -0.89072 23112 ft 444 kts 128°
2026-05-05 13:57 51.75001 -0.85122 23441 ft 447 kts 128°
2026-05-05 13:57 51.73135 -0.81078 23735 ft 449 kts 128°
2026-05-05 13:58 51.71259 -0.77027 23941 ft 454 kts 128°
2026-05-05 13:58 51.69350 -0.72931 24059 ft 460 kts 128°
2026-05-05 13:58 51.67410 -0.68793 24182 ft 465 kts 129°
2026-05-05 13:58 51.65442 -0.64606 24302 ft 470 kts 128°
2026-05-05 13:59 51.61484 -0.56182 24872 ft 471 kts 128°
2026-05-05 13:59 51.59512 -0.51992 25269 ft 469 kts 129°
2026-05-05 14:00 51.55590 -0.43666 26063 ft 465 kts 129°
2026-05-05 14:00 51.54299 -0.40933 26334 ft 463 kts 129°
2026-05-05 14:00 51.51699 -0.35443 26875 ft 460 kts 129°
2026-05-05 14:00 51.49761 -0.31371 27277 ft 458 kts 129°
2026-05-05 14:01 51.47825 -0.27315 27695 ft 456 kts 129°
2026-05-05 14:01 51.45899 -0.23280 28107 ft 454 kts 129°
2026-05-05 14:01 51.43987 -0.19274 28511 ft 452 kts 129°
2026-05-05 14:01 51.42107 -0.15328 28918 ft 450 kts 130°
2026-05-05 14:02 51.40208 -0.11354 29331 ft 448 kts 130°
2026-05-05 14:02 51.38289 -0.07351 29739 ft 446 kts 130°
2026-05-05 14:02 51.36428 -0.03476 30110 ft 445 kts 130°
2026-05-05 14:02 51.34642 0.00566 30408 ft 446 kts 123°
2026-05-05 14:03 51.33256 0.05023 30689 ft 450 kts 114°
2026-05-05 14:03 51.32326 0.09810 30962 ft 453 kts 105°
2026-05-05 14:03 51.31723 0.14757 31233 ft 454 kts 103°
2026-05-05 14:03 51.31125 0.19713 31515 ft 454 kts 103°
2026-05-05 14:04 51.30519 0.24661 31797 ft 454 kts 103°
2026-05-05 14:04 51.29908 0.29612 32221 ft 454 kts 103°
2026-05-05 14:04 51.29295 0.34570 32511 ft 454 kts 103°
2026-05-05 14:04 51.28685 0.39508 32788 ft 453 kts 103°
2026-05-05 14:05 51.28068 0.44452 33062 ft 453 kts 103°
2026-05-05 14:05 51.27455 0.49326 33315 ft 454 kts 103°
2026-05-05 14:05 51.26830 0.54274 33572 ft 454 kts 103°
2026-05-05 14:05 51.26210 0.59216 33852 ft 454 kts 103°
2026-05-05 14:06 51.25587 0.64155 34124 ft 453 kts 103°
2026-05-05 14:06 51.24960 0.69085 34358 ft 452 kts 103°
2026-05-05 14:06 51.24329 0.74002 34599 ft 451 kts 103°
2026-05-05 14:06 51.23700 0.78903 34835 ft 450 kts 103°
2026-05-05 14:07 51.23072 0.83799 34984 ft 450 kts 103°
2026-05-05 14:07 51.22440 0.88711 34956 ft 454 kts 103°
2026-05-05 14:07 51.21162 0.98620 34953 ft 456 kts 103°
2026-05-05 14:08 51.19879 1.08514 34956 ft 455 kts 104°
2026-05-05 14:08 51.18594 1.18333 34954 ft 455 kts 103°
2026-05-05 14:09 51.17283 1.28220 34955 ft 455 kts 104°
2026-05-05 14:09 51.16145 1.38148 34957 ft 457 kts 96°
2026-05-05 14:10 51.15674 1.48258 34951 ft 458 kts 96°
2026-05-05 14:10 51.15196 1.58376 34954 ft 458 kts 96°
2026-05-05 14:11 51.14692 1.68503 34946 ft 459 kts 97°
2026-05-05 14:11 51.14175 1.78621 34946 ft 459 kts 97°
2026-05-05 14:12 51.13653 1.88765 34946 ft 460 kts 96°
2026-05-05 14:12 51.13133 1.98861 34943 ft 460 kts 97°
2026-05-05 14:13 51.12600 2.09026 34940 ft 461 kts 97°
2026-05-05 14:13 51.12054 2.19192 34939 ft 461 kts 97°
2026-05-05 14:14 51.11502 2.29373 34942 ft 462 kts 97°
2026-05-05 14:14 51.10941 2.39554 34937 ft 461 kts 97°
2026-05-05 14:15 51.10369 2.49718 34936 ft 461 kts 97°
2026-05-05 14:15 51.09763 2.59864 34931 ft 460 kts 101°
2026-05-05 14:16 51.07993 2.69505 34928 ft 453 kts 118°
2026-05-05 14:16 51.05098 2.78295 34926 ft 451 kts 120°
2026-05-05 14:17 51.02169 2.87123 34930 ft 451 kts 120°
2026-05-05 14:17 50.99240 2.95909 34929 ft 450 kts 121°
2026-05-05 14:18 50.96295 3.04668 34920 ft 449 kts 121°
2026-05-05 14:18 50.93357 3.13391 34916 ft 448 kts 121°
2026-05-05 14:19 50.90415 3.22090 34916 ft 447 kts 121°
2026-05-05 14:19 50.87477 3.30769 34909 ft 446 kts 121°
2026-05-05 14:20 50.84540 3.39422 34891 ft 446 kts 121°
2026-05-05 14:20 50.81600 3.48042 34900 ft 445 kts 121°
2026-05-05 14:21 50.78654 3.56644 34891 ft 444 kts 121°
2026-05-05 14:21 50.75705 3.65222 34881 ft 444 kts 121°
2026-05-05 14:22 50.72764 3.73740 34890 ft 444 kts 122°
2026-05-05 14:22 50.69808 3.82280 34882 ft 444 kts 121°
2026-05-05 14:23 50.66839 3.90823 34889 ft 443 kts 122°
2026-05-05 14:23 50.64357 3.97934 34886 ft 442 kts 122°
2026-05-05 14:24 50.61409 4.06379 34896 ft 442 kts 122°
2026-05-05 14:24 50.58448 4.14849 34895 ft 442 kts 122°
2026-05-05 14:25 50.55482 4.23300 34895 ft 441 kts 122°
2026-05-05 14:25 50.52503 4.31736 34907 ft 441 kts 122°
2026-05-05 14:26 50.49523 4.40152 34890 ft 441 kts 122°
2026-05-05 14:26 50.46536 4.48559 34891 ft 441 kts 122°
2026-05-05 14:27 50.43541 4.56953 34891 ft 441 kts 122°
2026-05-05 14:27 50.40543 4.65337 34891 ft 441 kts 122°
2026-05-05 14:28 50.37534 4.73723 34887 ft 441 kts 122°
2026-05-05 14:28 50.34528 4.82085 34873 ft 440 kts 122°
2026-05-05 14:29 50.31515 4.90431 34869 ft 440 kts 122°
2026-05-05 14:29 50.28496 4.98751 34866 ft 440 kts 122°
2026-05-05 14:30 50.25487 5.07019 34858 ft 440 kts 122°
2026-05-05 14:30 50.22461 5.15340 34859 ft 440 kts 122°
2026-05-05 14:31 50.19431 5.23639 34855 ft 439 kts 122°
2026-05-05 14:31 50.16389 5.31923 34850 ft 439 kts 123°
2026-05-05 14:32 50.13361 5.40198 34850 ft 440 kts 122°
2026-05-05 14:32 50.10492 5.48633 34855 ft 440 kts 121°
2026-05-05 14:33 50.07690 5.57122 34857 ft 441 kts 121°
2026-05-05 14:33 50.04877 5.65522 34857 ft 439 kts 121°
2026-05-05 14:34 50.02019 5.73898 34851 ft 438 kts 122°
2026-05-05 14:34 49.99149 5.82251 34847 ft 437 kts 122°
2026-05-05 14:35 49.96291 5.90576 34847 ft 437 kts 122°
2026-05-05 14:35 49.93425 5.98909 34851 ft 437 kts 122°
2026-05-05 14:36 49.90563 6.07204 34852 ft 435 kts 122°
2026-05-05 14:36 49.87694 6.15470 34855 ft 435 kts 122°
2026-05-05 14:37 49.84829 6.23708 34849 ft 434 kts 122°
2026-05-05 14:37 49.81959 6.31935 34844 ft 434 kts 122°
2026-05-05 14:38 49.79113 6.40090 34841 ft 433 kts 122°
2026-05-05 14:38 49.76236 6.48290 34843 ft 433 kts 122°
2026-05-05 14:39 49.73356 6.56467 34838 ft 433 kts 122°
2026-05-05 14:39 49.70470 6.64638 34831 ft 433 kts 122°
2026-05-05 14:40 49.67583 6.72784 34833 ft 432 kts 122°
2026-05-05 14:40 49.64693 6.80919 34832 ft 432 kts 122°
2026-05-05 14:41 49.61793 6.89043 34829 ft 432 kts 122°
2026-05-05 14:41 49.58892 6.97158 34835 ft 432 kts 122°
2026-05-05 14:42 49.55980 7.05274 34841 ft 432 kts 122°
2026-05-05 14:42 49.53061 7.13383 34852 ft 433 kts 122°
2026-05-05 14:43 49.50133 7.21491 34834 ft 433 kts 122°
2026-05-05 14:43 49.47201 7.29599 34827 ft 433 kts 122°
2026-05-05 14:44 49.44261 7.37691 34826 ft 433 kts 122°
2026-05-05 14:44 49.41317 7.45768 34829 ft 433 kts 122°
2026-05-05 14:45 49.38366 7.53842 34818 ft 434 kts 122°
2026-05-05 14:45 49.35408 7.61915 34826 ft 434 kts 122°
2026-05-05 14:46 49.32445 7.69973 34828 ft 434 kts 123°
2026-05-05 14:46 49.29459 7.78037 34824 ft 434 kts 123°
2026-05-05 14:47 49.26494 7.86038 34825 ft 436 kts 123°
2026-05-05 14:47 49.23511 7.94103 34826 ft 436 kts 123°
2026-05-05 14:48 49.20508 8.02159 34828 ft 436 kts 123°
2026-05-05 14:48 49.17495 8.10205 34829 ft 436 kts 123°
2026-05-05 14:49 49.14473 8.18257 34830 ft 436 kts 123°
2026-05-05 14:49 49.11451 8.26295 34831 ft 436 kts 123°
2026-05-05 14:50 49.08422 8.34330 34832 ft 437 kts 123°
2026-05-05 14:50 49.05386 8.42361 34834 ft 437 kts 123°
2026-05-05 14:51 49.02340 8.50387 34834 ft 437 kts 123°
2026-05-05 14:51 48.99023 8.58099 34839 ft 433 kts 134°
2026-05-05 14:52 48.94570 8.64138 34840 ft 429 kts 144°
2026-05-05 14:52 48.89883 8.69756 34839 ft 429 kts 145°
2026-05-05 14:53 48.85036 8.74896 34835 ft 427 kts 149°
2026-05-05 14:53 48.80015 8.79744 34843 ft 428 kts 150°
2026-05-05 14:54 48.74994 8.84614 34843 ft 429 kts 149°
2026-05-05 14:54 48.70000 8.89588 34844 ft 429 kts 148°
2026-05-05 14:55 48.65015 8.94586 34849 ft 431 kts 148°
2026-05-05 14:55 48.60009 8.99567 34843 ft 430 kts 149°
2026-05-05 14:56 48.54994 9.04536 34836 ft 431 kts 149°
2026-05-05 14:56 48.49972 9.09497 34841 ft 432 kts 149°
2026-05-05 14:57 48.44937 9.14447 34846 ft 433 kts 149°
2026-05-05 14:57 48.39888 9.19412 34835 ft 433 kts 149°
2026-05-05 14:58 48.34848 9.24373 34834 ft 433 kts 149°
2026-05-05 14:58 48.29793 9.29328 34836 ft 434 kts 149°
2026-05-05 14:59 48.24752 9.34233 34836 ft 435 kts 150°
2026-05-05 14:59 48.19668 9.39178 34831 ft 435 kts 150°
2026-05-05 15:00 48.15415 9.43314 34830 ft 436 kts 150°
2026-05-05 15:00 48.09489 9.49083 34831 ft 437 kts 150°
2026-05-05 15:01 48.04414 9.53983 34829 ft 437 kts 150°
2026-05-05 15:01 47.99310 9.58935 34829 ft 438 kts 149°
2026-05-05 15:02 47.94276 9.64090 34836 ft 440 kts 149°
2026-05-05 15:02 47.89577 9.68978 34831 ft 440 kts 149°
2026-05-05 15:03 47.84459 9.74243 34840 ft 441 kts 149°
2026-05-05 15:03 47.79392 9.79385 34837 ft 440 kts 150°
2026-05-05 15:04 47.74316 9.84510 34842 ft 441 kts 150°
2026-05-05 15:04 47.69270 9.89609 34838 ft 442 kts 150°
2026-05-05 15:05 47.61640 9.97305 34841 ft 442 kts 151°
2026-05-05 15:06 47.56509 10.02465 34851 ft 443 kts 151°
2026-05-05 15:06 47.51440 10.07550 34850 ft 443 kts 151°
2026-05-05 15:07 47.46296 10.12692 34859 ft 444 kts 151°
2026-05-05 15:07 47.41213 10.17771 34853 ft 443 kts 152°
2026-05-05 15:08 47.36107 10.22859 34851 ft 443 kts 152°
2026-05-05 15:08 47.30984 10.27945 34854 ft 444 kts 152°
2026-05-05 15:09 47.25852 10.33023 34852 ft 445 kts 152°
2026-05-05 15:09 47.21551 10.37277 34853 ft 445 kts 152°
2026-05-05 15:10 47.16429 10.42327 34859 ft 446 kts 152°
2026-05-05 15:10 47.11255 10.47418 34857 ft 446 kts 152°
2026-05-05 15:11 47.06033 10.52293 34862 ft 442 kts 159°
2026-05-05 15:11 47.00323 10.55321 34866 ft 435 kts 168°
2026-05-05 15:12 46.94521 10.57928 34885 ft 436 kts 168°
2026-05-05 15:12 46.88756 10.60519 34897 ft 436 kts 168°
2026-05-05 15:13 46.82957 10.63132 34909 ft 437 kts 168°
2026-05-05 15:13 46.77140 10.65763 34929 ft 437 kts 168°
2026-05-05 15:14 46.71306 10.68341 34938 ft 436 kts 169°
2026-05-05 15:14 46.65462 10.70390 34951 ft 434 kts 173°
2026-05-05 15:15 46.59546 10.72161 34957 ft 434 kts 173°
2026-05-05 15:15 46.53637 10.73991 34967 ft 435 kts 172°
2026-05-05 15:16 46.47720 10.75927 34985 ft 436 kts 172°
2026-05-05 15:16 46.41802 10.77870 34999 ft 436 kts 172°
2026-05-05 15:17 46.35889 10.79799 34996 ft 436 kts 172°
2026-05-05 15:17 46.29953 10.81717 34994 ft 437 kts 172°
2026-05-05 15:18 46.24014 10.83623 34991 ft 438 kts 172°
2026-05-05 15:18 46.18049 10.85534 34994 ft 439 kts 172°
2026-05-05 15:19 46.12080 10.87460 34990 ft 439 kts 172°
2026-05-05 15:19 46.06116 10.89387 34998 ft 440 kts 172°
2026-05-05 15:20 46.00145 10.91296 35003 ft 441 kts 172°
2026-05-05 15:20 45.94138 10.93214 34994 ft 441 kts 172°
2026-05-05 15:21 45.88142 10.95123 34731 ft 442 kts 172°
2026-05-05 15:21 45.85144 10.96076 34484 ft 441 kts 172°
2026-05-05 15:21 45.82142 10.97032 33994 ft 443 kts 172°
2026-05-05 15:21 45.79141 10.97985 32770 ft 452 kts 172°
2026-05-05 15:22 45.76094 10.98952 31904 ft 443 kts 172°
2026-05-05 15:22 45.73106 10.99906 30705 ft 439 kts 172°
2026-05-05 15:22 45.70112 11.00855 29200 ft 441 kts 172°
2026-05-05 15:22 45.67077 11.01809 27874 ft 450 kts 172°
2026-05-05 15:23 45.64033 11.02762 26473 ft 446 kts 172°
2026-05-05 15:23 45.60945 11.03633 24829 ft 460 kts 174°
2026-05-05 15:23 45.57776 11.04415 23768 ft 462 kts 175°
2026-05-05 15:23 45.54625 11.05140 22903 ft 454 kts 175°
2026-05-05 15:24 45.51512 11.05841 21652 ft 454 kts 175°
2026-05-05 15:24 45.48406 11.06544 20836 ft 450 kts 175°
2026-05-05 15:24 45.45355 11.07254 19809 ft 439 kts 175°
2026-05-05 15:24 45.42400 11.07967 19036 ft 423 kts 175°
2026-05-05 15:25 45.39517 11.08673 18342 ft 419 kts 175°
2026-05-05 15:25 45.36648 11.09371 17586 ft 417 kts 175°
2026-05-05 15:25 45.33802 11.10063 16922 ft 412 kts 174°
2026-05-05 15:25 45.30994 11.10746 16233 ft 408 kts 174°
2026-05-05 15:26 45.28211 11.11419 15605 ft 404 kts 174°
2026-05-05 15:26 45.25450 11.12080 14997 ft 400 kts 174°
2026-05-05 15:26 45.22715 11.12733 14225 ft 400 kts 174°
2026-05-05 15:26 45.19950 11.13390 13366 ft 403 kts 174°
2026-05-05 15:27 45.17204 11.14044 12769 ft 397 kts 174°
2026-05-05 15:27 45.14503 11.14692 12160 ft 391 kts 174°
2026-05-05 15:27 45.11840 11.15329 11565 ft 386 kts 174°
2026-05-05 15:27 45.09199 11.15958 10952 ft 382 kts 174°
2026-05-05 15:28 45.06594 11.16578 10336 ft 378 kts 173°
2026-05-05 15:28 45.04023 11.17193 9673 ft 367 kts 174°
2026-05-05 15:28 45.01560 11.17786 9026 ft 356 kts 173°
2026-05-05 15:28 44.99140 11.18364 8450 ft 344 kts 174°
2026-05-05 15:29 44.96874 11.18908 8285 ft 316 kts 174°
2026-05-05 15:29 44.94790 11.19385 8159 ft 290 kts 178°
2026-05-05 15:29 44.92864 11.19431 7954 ft 267 kts 188°
2026-05-05 15:29 44.91098 11.19021 7715 ft 248 kts 198°
2026-05-05 15:30 44.89534 11.18284 7470 ft 233 kts 206°
2026-05-05 15:30 44.88112 11.17259 7227 ft 227 kts 214°
2026-05-05 15:30 44.86839 11.15975 6989 ft 223 kts 221°
2026-05-05 15:30 44.85640 11.14596 6744 ft 222 kts 220°
2026-05-05 15:31 44.84434 11.13243 6497 ft 221 kts 215°
2026-05-05 15:31 44.82997 11.12482 6387 ft 226 kts 189°
2026-05-05 15:31 44.81416 11.12422 6329 ft 228 kts 184°
2026-05-05 15:31 44.79829 11.12405 6191 ft 228 kts 184°
2026-05-05 15:32 44.78247 11.12397 5915 ft 227 kts 184°
2026-05-05 15:32 44.76674 11.12391 5637 ft 226 kts 184°
2026-05-05 15:32 44.75106 11.12384 5352 ft 225 kts 183°
2026-05-05 15:32 44.73535 11.12375 5061 ft 225 kts 183°
2026-05-05 15:33 44.71995 11.12366 4794 ft 218 kts 183°
2026-05-05 15:33 44.70530 11.12356 4518 ft 203 kts 183°
2026-05-05 15:33 44.69176 11.12349 4274 ft 185 kts 182°
2026-05-05 15:33 44.67928 11.12341 4051 ft 176 kts 182°
2026-05-05 15:34 44.66725 11.12332 3826 ft 166 kts 182°
2026-05-05 15:34 44.65622 11.12323 3633 ft 155 kts 182°
2026-05-05 15:34 44.64548 11.12314 3437 ft 155 kts 181°
2026-05-05 15:34 44.63484 11.12305 3226 ft 156 kts 181°
2026-05-05 15:35 44.62401 11.12297 3018 ft 156 kts 180°
2026-05-05 15:35 44.61312 11.12289 2816 ft 157 kts 180°
2026-05-05 15:35 44.60232 11.12458 2573 ft 157 kts 160°
2026-05-05 15:35 44.59309 11.13240 2385 ft 156 kts 135°
2026-05-05 15:36 44.58700 11.14478 2204 ft 155 kts 116°
2026-05-05 15:36 44.58218 11.15828 1997 ft 155 kts 115°
2026-05-05 15:36 44.57743 11.17156 1788 ft 149 kts 114°
2026-05-05 15:36 44.57281 11.18447 1592 ft 147 kts 114°
2026-05-05 15:37 44.56825 11.19721 1391 ft 146 kts 115°
2026-05-05 15:37 44.56369 11.20994 1192 ft 145 kts 114°
2026-05-05 15:37 44.55917 11.22256 994 ft 145 kts 114°
2026-05-05 15:37 44.55466 11.23512 795 ft 143 kts 112°
2026-05-05 15:38 44.55007 11.24767 620 ft 144 kts 114°
2026-05-05 15:38 44.54557 11.26029 376 ft 145 kts 113°
2026-05-05 15:38 44.54100 11.27293 236 ft 146 kts 112°
2026-05-05 15:38 44.53655 11.28538 132 ft 134 kts 114°
2026-05-05 15:39 44.53316 11.29504 128 ft 79 kts 117°
2026-05-05 15:39 44.53184 11.29868 124 ft 21 kts 116°
2026-05-05 15:39 44.53115 11.29943 125 ft 11 kts 193°
2026-05-05 15:39 44.53072 11.29883 128 ft 7 kts 235°
2026-05-05 15:40 44.53051 11.29835 129 ft 0 kts 235°
2026-05-05 15:40 44.53047 11.29828 128 ft 6 kts 234°
2026-05-05 15:41 44.52988 11.29768 126 ft 10 kts 235°
2026-05-05 15:41 44.53002 11.29685 130 ft 10 kts 296°
2026-05-05 15:41 44.53048 11.29556 128 ft 19 kts 296°
2026-05-05 15:41 44.53122 11.29353 127 ft 26 kts 297°
2026-05-05 15:42 44.53169 11.29220 127 ft 13 kts 297°
2026-05-05 15:42 44.53192 11.29121 128 ft 8 kts 244°
2026-05-05 15:42 44.53161 11.29093 129 ft 3 kts 208°
2026-05-05 15:42 44.53152 11.29086 130 ft 0 kts 207°
2026-05-05 15:55 44.53152 11.29087 131 ft 0 kts 207°
2026-05-05 16:01 44.53153 11.29087 131 ft 0 kts 207°